Year,Month,Day,Hour,Minute,Value (Times are PST for temperature in C)
2009,09,23,00,00,12.90
2009,09,23,00,01,12.90
2009,09,23,00,02,12.90
2009,09,23,00,03,12.90
2009,09,23,00,04,12.90
2009,09,23,00,05,12.90
2009,09,23,00,06,12.90
2009,09,23,00,07,12.80
2009,09,23,00,08,12.80
2009,09,23,00,09,12.80
2009,09,23,00,10,12.80
2009,09,23,00,11,12.80
2009,09,23,00,12,12.80
2009,09,23,00,13,12.80
2009,09,23,00,14,12.80
2009,09,23,00,15,12.80
2009,09,23,00,16,12.80
2009,09,23,00,17,12.80
2009,09,23,00,18,12.80
2009,09,23,00,19,12.80
2009,09,23,00,20,12.80
2009,09,23,00,21,12.70
2009,09,23,00,22,12.70
2009,09,23,00,23,12.70
2009,09,23,00,24,12.70
2009,09,23,00,25,12.70
2009,09,23,00,26,12.60
2009,09,23,00,27,12.60
2009,09,23,00,28,12.60
2009,09,23,00,29,12.60
2009,09,23,00,30,12.60
2009,09,23,00,31,12.60
2009,09,23,00,32,12.50
2009,09,23,00,33,12.50
2009,09,23,00,34,12.50
2009,09,23,00,35,12.50
2009,09,23,00,36,12.50
2009,09,23,00,37,12.40
2009,09,23,00,38,12.40
2009,09,23,00,39,12.40
2009,09,23,00,40,12.40
2009,09,23,00,41,12.30
2009,09,23,00,42,12.30
2009,09,23,00,43,12.30
2009,09,23,00,44,12.30
2009,09,23,00,45,12.20
2009,09,23,00,46,12.20
2009,09,23,00,47,12.10
2009,09,23,00,48,12.10
2009,09,23,00,49,12.10
2009,09,23,00,50,12.10
2009,09,23,00,51,12.00
2009,09,23,00,52,12.00
2009,09,23,00,53,12.00
2009,09,23,00,54,12.00
2009,09,23,00,55,12.00
2009,09,23,00,56,12.00
2009,09,23,00,57,12.00
2009,09,23,00,58,11.90
2009,09,23,00,59,11.90
2009,09,23,01,00,11.90
2009,09,23,01,01,11.90
2009,09,23,01,02,11.90
2009,09,23,01,03,11.90
2009,09,23,01,04,11.90
2009,09,23,01,05,11.90
2009,09,23,01,06,11.90
2009,09,23,01,07,11.90
2009,09,23,01,08,11.90
2009,09,23,01,09,11.80
2009,09,23,01,10,11.80
2009,09,23,01,11,11.80
2009,09,23,01,12,11.80
2009,09,23,01,13,11.80
2009,09,23,01,14,11.80
2009,09,23,01,15,11.70
2009,09,23,01,16,11.70
2009,09,23,01,17,11.70
2009,09,23,01,18,11.70
2009,09,23,01,19,11.70
2009,09,23,01,20,11.70
2009,09,23,01,21,11.70
2009,09,23,01,22,11.70
2009,09,23,01,23,11.70
2009,09,23,01,24,11.70
2009,09,23,01,25,11.60
2009,09,23,01,26,11.60
2009,09,23,01,27,11.60
2009,09,23,01,28,11.60
2009,09,23,01,29,11.60
2009,09,23,01,30,11.60
2009,09,23,01,31,11.60
2009,09,23,01,32,11.60
2009,09,23,01,33,11.60
2009,09,23,01,34,11.60
2009,09,23,01,35,11.60
2009,09,23,01,36,11.60
2009,09,23,01,37,11.60
2009,09,23,01,38,11.60
2009,09,23,01,39,11.60
2009,09,23,01,40,11.60
2009,09,23,01,41,11.50
2009,09,23,01,42,11.50
2009,09,23,01,43,11.50
2009,09,23,01,44,11.50
2009,09,23,01,45,11.50
2009,09,23,01,46,11.50
2009,09,23,01,47,11.40
2009,09,23,01,48,11.40
2009,09,23,01,49,11.40
2009,09,23,01,50,11.40
2009,09,23,01,51,11.40
2009,09,23,01,52,11.40
2009,09,23,01,53,11.40
2009,09,23,01,54,11.40
2009,09,23,01,55,11.40
2009,09,23,01,56,11.40
2009,09,23,01,57,11.40
2009,09,23,01,58,11.40
2009,09,23,01,59,11.40
2009,09,23,02,00,11.40
2009,09,23,02,01,11.40
2009,09,23,02,02,11.30
2009,09,23,02,03,11.30
2009,09,23,02,04,11.30
2009,09,23,02,05,11.30
2009,09,23,02,06,11.30
2009,09,23,02,07,11.30
2009,09,23,02,08,11.30
2009,09,23,02,09,11.30
2009,09,23,02,10,11.30
2009,09,23,02,11,11.30
2009,09,23,02,12,11.30
2009,09,23,02,13,11.20
2009,09,23,02,14,11.20
2009,09,23,02,15,11.20
2009,09,23,02,16,11.20
2009,09,23,02,17,11.10
2009,09,23,02,18,11.10
2009,09,23,02,19,11.10
2009,09,23,02,20,11.10
2009,09,23,02,21,11.10
2009,09,23,02,22,11.10
2009,09,23,02,23,11.00
2009,09,23,02,24,11.00
2009,09,23,02,25,11.00
2009,09,23,02,26,10.90
2009,09,23,02,27,10.90
2009,09,23,02,28,10.90
2009,09,23,02,29,10.90
2009,09,23,02,30,10.90
2009,09,23,02,31,10.80
2009,09,23,02,32,10.80
2009,09,23,02,33,10.80
2009,09,23,02,34,10.80
2009,09,23,02,35,10.80
2009,09,23,02,36,10.80
2009,09,23,02,37,10.80
2009,09,23,02,38,10.80
2009,09,23,02,39,10.80
2009,09,23,02,40,10.70
2009,09,23,02,41,10.70
2009,09,23,02,42,10.70
2009,09,23,02,43,10.70
2009,09,23,02,44,10.70
2009,09,23,02,45,10.70
2009,09,23,02,46,10.70
2009,09,23,02,47,10.70
2009,09,23,02,48,10.70
2009,09,23,02,49,10.70
2009,09,23,02,50,10.70
2009,09,23,02,51,10.70
2009,09,23,02,52,10.70
2009,09,23,02,53,10.70
2009,09,23,02,54,10.70
2009,09,23,02,55,10.70
2009,09,23,02,56,10.70
2009,09,23,02,57,10.70
2009,09,23,02,58,10.70
2009,09,23,02,59,10.70
2009,09,23,03,00,10.70
2009,09,23,03,01,10.70
2009,09,23,03,02,10.70
2009,09,23,03,03,10.70
2009,09,23,03,04,10.70
2009,09,23,03,05,10.70
2009,09,23,03,06,10.70
2009,09,23,03,07,10.70
2009,09,23,03,08,10.70
2009,09,23,03,09,10.70
2009,09,23,03,10,10.60
2009,09,23,03,11,10.60
2009,09,23,03,12,10.60
2009,09,23,03,13,10.60
2009,09,23,03,14,10.60
2009,09,23,03,15,10.60
2009,09,23,03,16,10.60
2009,09,23,03,17,10.50
2009,09,23,03,18,10.50
2009,09,23,03,19,10.60
2009,09,23,03,20,10.60
2009,09,23,03,21,10.60
2009,09,23,03,22,10.60
2009,09,23,03,23,10.60
2009,09,23,03,24,10.60
2009,09,23,03,25,10.60
2009,09,23,03,26,10.60
2009,09,23,03,27,10.60
2009,09,23,03,28,10.60
2009,09,23,03,29,10.60
2009,09,23,03,30,10.50
2009,09,23,03,31,10.50
2009,09,23,03,32,10.50
2009,09,23,03,33,10.50
2009,09,23,03,34,10.50
2009,09,23,03,35,10.40
2009,09,23,03,36,10.40
2009,09,23,03,37,10.40
2009,09,23,03,38,10.40
2009,09,23,03,39,10.40
2009,09,23,03,40,10.30
2009,09,23,03,41,10.30
2009,09,23,03,42,10.30
2009,09,23,03,43,10.30
2009,09,23,03,44,10.30
2009,09,23,03,45,10.30
2009,09,23,03,46,10.30
2009,09,23,03,47,10.30
2009,09,23,03,48,10.30
2009,09,23,03,49,10.20
2009,09,23,03,50,10.30
2009,09,23,03,51,10.20
2009,09,23,03,52,10.20
2009,09,23,03,53,10.20
2009,09,23,03,54,10.20
2009,09,23,03,55,10.20
2009,09,23,03,56,10.20
2009,09,23,03,57,10.20
2009,09,23,03,58,10.20
2009,09,23,03,59,10.20
2009,09,23,04,00,10.20
2009,09,23,04,01,10.30
2009,09,23,04,02,10.30
2009,09,23,04,03,10.30
2009,09,23,04,04,10.30
2009,09,23,04,09,10.20
2009,09,23,04,10,10.20
2009,09,23,04,11,10.20
2009,09,23,04,12,10.20
2009,09,23,04,13,10.10
2009,09,23,04,14,10.10
2009,09,23,04,15,10.10
2009,09,23,04,16,10.00
2009,09,23,04,17,10.00
2009,09,23,04,18,10.00
2009,09,23,04,19,10.00
2009,09,23,04,20,10.00
2009,09,23,04,21,10.00
2009,09,23,04,22,10.00
2009,09,23,04,23,10.00
2009,09,23,04,24,10.00
2009,09,23,04,25,10.00
2009,09,23,04,26,10.00
2009,09,23,04,27,10.00
2009,09,23,04,28,10.10
2009,09,23,04,29,10.10
2009,09,23,04,30,10.10
2009,09,23,04,31,10.00
2009,09,23,04,32,10.00
2009,09,23,04,33,10.00
2009,09,23,04,34,9.90
2009,09,23,04,35,9.90
2009,09,23,04,36,9.90
2009,09,23,04,37,9.90
2009,09,23,04,38,9.80
2009,09,23,04,39,9.80
2009,09,23,04,40,9.80
2009,09,23,04,41,9.80
2009,09,23,04,42,9.80
2009,09,23,04,43,9.80
2009,09,23,04,44,9.80
2009,09,23,04,45,9.80
2009,09,23,04,46,9.80
2009,09,23,04,47,9.80
2009,09,23,04,48,9.80
2009,09,23,04,49,9.80
2009,09,23,04,50,9.80
2009,09,23,04,51,9.80
2009,09,23,04,52,9.80
2009,09,23,04,53,9.80
2009,09,23,04,54,9.80
2009,09,23,04,55,9.70
2009,09,23,04,56,9.70
2009,09,23,04,57,9.70
2009,09,23,04,58,9.70
2009,09,23,04,59,9.60
2009,09,23,05,00,9.60
2009,09,23,05,01,9.60
2009,09,23,05,02,9.60
2009,09,23,05,03,9.60
2009,09,23,05,04,9.60
2009,09,23,05,05,9.60
2009,09,23,05,06,9.60
2009,09,23,05,07,9.60
2009,09,23,05,08,9.60
2009,09,23,05,09,9.60
2009,09,23,05,10,9.60
2009,09,23,05,11,9.60
2009,09,23,05,12,9.60
2009,09,23,05,13,9.60
2009,09,23,05,14,9.60
2009,09,23,05,15,9.60
2009,09,23,05,16,9.60
2009,09,23,05,17,9.60
2009,09,23,05,18,9.60
2009,09,23,05,19,9.60
2009,09,23,05,20,9.60
2009,09,23,05,21,9.60
2009,09,23,05,22,9.60
2009,09,23,05,23,9.60
2009,09,23,05,24,9.60
2009,09,23,05,25,9.50
2009,09,23,05,26,9.50
2009,09,23,05,27,9.50
2009,09,23,05,28,9.40
2009,09,23,05,29,9.40
2009,09,23,05,30,9.40
2009,09,23,05,31,9.40
2009,09,23,05,32,9.40
2009,09,23,05,33,9.30
2009,09,23,05,34,9.30
2009,09,23,05,35,9.30
2009,09,23,05,36,9.30
2009,09,23,05,37,9.30
2009,09,23,05,38,9.30
2009,09,23,05,39,9.30
2009,09,23,05,40,9.20
2009,09,23,05,41,9.20
2009,09,23,05,42,9.20
2009,09,23,05,43,9.20
2009,09,23,05,44,9.20
2009,09,23,05,45,9.20
2009,09,23,05,46,9.20
2009,09,23,05,47,9.20
2009,09,23,05,48,9.20
2009,09,23,05,49,9.20
2009,09,23,05,50,9.20
2009,09,23,05,51,9.20
2009,09,23,05,52,9.20
2009,09,23,05,53,9.20
2009,09,23,05,54,9.20
2009,09,23,05,55,9.20
2009,09,23,05,56,9.20
2009,09,23,05,57,9.30
2009,09,23,05,58,9.30
2009,09,23,05,59,9.30
2009,09,23,06,00,9.30
2009,09,23,06,01,9.30
2009,09,23,06,02,9.30
2009,09,23,06,03,9.30
2009,09,23,06,04,9.30
2009,09,23,06,05,9.30
2009,09,23,06,06,9.30
2009,09,23,06,07,9.30
2009,09,23,06,08,9.30
2009,09,23,06,09,9.30
2009,09,23,06,10,9.30
2009,09,23,06,11,9.30
2009,09,23,06,12,9.20
2009,09,23,06,13,9.20
2009,09,23,06,14,9.20
2009,09,23,06,15,9.20
2009,09,23,06,16,9.30
2009,09,23,06,17,9.30
2009,09,23,06,18,9.30
2009,09,23,06,19,9.40
2009,09,23,06,20,9.40
2009,09,23,06,21,9.40
2009,09,23,06,22,9.40
2009,09,23,06,23,9.40
2009,09,23,06,24,9.40
2009,09,23,06,25,9.40
2009,09,23,06,26,9.40
2009,09,23,06,27,9.40
2009,09,23,06,28,9.30
2009,09,23,06,29,9.30
2009,09,23,06,30,9.30
2009,09,23,06,31,9.30
2009,09,23,06,32,9.20
2009,09,23,06,33,9.20
2009,09,23,06,34,9.20
2009,09,23,06,35,9.10
2009,09,23,06,36,9.10
2009,09,23,06,37,9.10
2009,09,23,06,38,9.10
2009,09,23,06,39,9.10
2009,09,23,06,40,9.00
2009,09,23,06,41,9.00
2009,09,23,06,42,9.00
2009,09,23,06,43,9.00
2009,09,23,06,44,9.00
2009,09,23,06,45,9.00
2009,09,23,06,46,9.00
2009,09,23,06,47,9.00
2009,09,23,06,48,9.00
2009,09,23,06,49,9.00
2009,09,23,06,50,9.00
2009,09,23,06,51,9.10
2009,09,23,06,52,9.10
2009,09,23,06,53,9.10
2009,09,23,06,54,9.10
2009,09,23,06,55,9.10
2009,09,23,06,56,9.20
2009,09,23,06,57,9.20
2009,09,23,06,58,9.20
2009,09,23,06,59,9.20
2009,09,23,07,00,9.20
2009,09,23,07,01,9.20
2009,09,23,07,02,9.30
2009,09,23,07,03,9.30
2009,09,23,07,04,9.20
2009,09,23,07,05,9.20
2009,09,23,07,06,9.20
2009,09,23,07,07,9.20
2009,09,23,07,08,9.20
2009,09,23,07,09,9.20
2009,09,23,07,10,9.20
2009,09,23,07,11,9.30
2009,09,23,07,12,9.30
2009,09,23,07,13,9.30
2009,09,23,07,14,9.30
2009,09,23,07,15,9.30
2009,09,23,07,16,9.30
2009,09,23,07,17,9.30
2009,09,23,07,18,9.30
2009,09,23,07,19,9.30
2009,09,23,07,20,9.20
2009,09,23,07,21,9.30
2009,09,23,07,22,9.30
2009,09,23,07,23,9.30
2009,09,23,07,24,9.30
2009,09,23,07,25,9.30
2009,09,23,07,26,9.30
2009,09,23,07,27,9.30
2009,09,23,07,28,9.30
2009,09,23,07,29,9.30
2009,09,23,07,30,9.30
2009,09,23,07,31,9.40
2009,09,23,07,32,9.40
2009,09,23,07,33,9.40
2009,09,23,07,34,9.40
2009,09,23,07,35,9.50
2009,09,23,07,36,9.50
2009,09,23,07,37,9.50
2009,09,23,07,38,9.60
2009,09,23,07,39,9.60
2009,09,23,07,40,9.60
2009,09,23,07,41,9.70
2009,09,23,07,42,9.70
2009,09,23,07,43,9.80
2009,09,23,07,44,9.80
2009,09,23,07,45,9.80
2009,09,23,07,46,9.80
2009,09,23,07,47,9.80
2009,09,23,07,48,9.80
2009,09,23,07,49,9.80
2009,09,23,07,50,9.80
2009,09,23,07,51,9.90
2009,09,23,07,52,9.90
2009,09,23,07,53,10.00
2009,09,23,07,54,10.00
2009,09,23,07,55,10.10
2009,09,23,07,56,10.10
2009,09,23,07,57,10.20
2009,09,23,07,58,10.30
2009,09,23,07,59,10.30
2009,09,23,08,00,10.40
2009,09,23,08,01,10.50
2009,09,23,08,02,10.60
2009,09,23,08,03,10.70
2009,09,23,08,04,10.80
2009,09,23,08,05,10.80
2009,09,23,08,06,10.90
2009,09,23,08,07,11.00
2009,09,23,08,08,11.10
2009,09,23,08,09,11.10
2009,09,23,08,10,11.20
2009,09,23,08,11,11.30
2009,09,23,08,12,11.30
2009,09,23,08,13,11.40
2009,09,23,08,14,11.40
2009,09,23,08,15,11.50
2009,09,23,08,16,11.50
2009,09,23,08,17,11.60
2009,09,23,08,18,11.70
2009,09,23,08,19,11.70
2009,09,23,08,20,11.80
2009,09,23,08,21,11.80
2009,09,23,08,22,11.90
2009,09,23,08,23,12.00
2009,09,23,08,24,12.10
2009,09,23,08,25,12.20
2009,09,23,08,26,12.30
2009,09,23,08,27,12.40
2009,09,23,08,28,12.50
2009,09,23,08,29,12.50
2009,09,23,08,30,12.60
2009,09,23,08,31,12.70
2009,09,23,08,32,12.70
2009,09,23,08,33,12.80
2009,09,23,08,34,12.90
2009,09,23,08,35,13.00
2009,09,23,08,36,13.10
2009,09,23,08,37,13.20
2009,09,23,08,38,13.20
2009,09,23,08,39,13.30
2009,09,23,08,40,13.40
2009,09,23,08,41,13.50
2009,09,23,08,42,13.60
2009,09,23,08,43,13.70
2009,09,23,08,44,13.80
2009,09,23,08,45,13.90
2009,09,23,08,46,14.00
2009,09,23,08,47,14.10
2009,09,23,08,48,14.20
2009,09,23,08,49,14.30
2009,09,23,08,50,14.40
2009,09,23,08,51,14.50
2009,09,23,08,52,14.70
2009,09,23,08,53,14.80
2009,09,23,08,54,15.00
2009,09,23,08,55,15.00
2009,09,23,08,56,15.00
2009,09,23,08,57,15.10
2009,09,23,08,58,15.20
2009,09,23,08,59,15.30
2009,09,23,09,00,15.40
2009,09,23,09,01,15.60
2009,09,23,09,02,15.70
2009,09,23,09,03,15.80
2009,09,23,09,04,15.80
2009,09,23,09,05,15.90
2009,09,23,09,06,16.00
2009,09,23,09,07,16.10
2009,09,23,09,08,16.20
2009,09,23,09,09,16.30
2009,09,23,09,10,16.30
2009,09,23,09,11,16.40
2009,09,23,09,12,16.40
2009,09,23,09,13,16.50
2009,09,23,09,14,16.50
2009,09,23,09,15,16.60
2009,09,23,09,16,16.60
2009,09,23,09,17,16.70
2009,09,23,09,18,16.70
2009,09,23,09,19,16.70
2009,09,23,09,20,16.80
2009,09,23,09,21,16.80
2009,09,23,09,22,16.90
2009,09,23,09,23,16.90
2009,09,23,09,24,16.90
2009,09,23,09,25,17.00
2009,09,23,09,26,17.10
2009,09,23,09,27,17.20
2009,09,23,09,28,17.20
2009,09,23,09,29,17.30
2009,09,23,09,30,17.40
2009,09,23,09,31,17.50
2009,09,23,09,32,17.50
2009,09,23,09,33,17.60
2009,09,23,09,34,17.70
2009,09,23,09,35,17.80
2009,09,23,09,36,18.00
2009,09,23,09,37,18.10
2009,09,23,09,38,18.20
2009,09,23,09,39,18.30
2009,09,23,09,40,18.50
2009,09,23,09,41,18.50
2009,09,23,09,42,18.60
2009,09,23,09,43,18.70
2009,09,23,09,44,18.70
2009,09,23,09,45,18.70
2009,09,23,09,46,18.80
2009,09,23,09,47,18.80
2009,09,23,09,48,18.80
2009,09,23,09,49,18.90
2009,09,23,09,50,18.90
2009,09,23,09,51,19.00
2009,09,23,09,52,19.10
2009,09,23,09,53,19.20
2009,09,23,09,54,19.30
2009,09,23,09,55,19.40
2009,09,23,09,56,19.50
2009,09,23,09,57,19.50
2009,09,23,09,58,19.60
2009,09,23,09,59,19.50
2009,09,23,10,00,19.50
2009,09,23,10,01,19.50
2009,09,23,10,02,19.50
2009,09,23,10,03,19.50
2009,09,23,10,04,19.50
2009,09,23,10,05,19.60
2009,09,23,10,06,19.60
2009,09,23,10,07,19.50
2009,09,23,10,08,19.50
2009,09,23,10,09,19.40
2009,09,23,10,10,19.40
2009,09,23,10,11,19.40
2009,09,23,10,12,19.40
2009,09,23,10,13,19.40
2009,09,23,10,14,19.40
2009,09,23,10,15,19.30
2009,09,23,10,16,19.40
2009,09,23,10,17,19.40
2009,09,23,10,18,19.40
2009,09,23,10,19,19.40
2009,09,23,10,20,19.40
2009,09,23,10,21,19.50
2009,09,23,10,22,19.50
2009,09,23,10,23,19.60
2009,09,23,10,24,19.60
2009,09,23,10,25,19.70
2009,09,23,10,26,19.80
2009,09,23,10,27,19.90
2009,09,23,10,28,20.00
2009,09,23,10,29,20.10
2009,09,23,10,30,20.20
2009,09,23,10,31,20.20
2009,09,23,10,32,20.30
2009,09,23,10,33,20.40
2009,09,23,10,34,20.40
2009,09,23,10,35,20.50
2009,09,23,10,36,20.60
2009,09,23,10,37,20.60
2009,09,23,10,38,20.60
2009,09,23,10,39,20.60
2009,09,23,10,40,20.50
2009,09,23,10,41,20.50
2009,09,23,10,42,20.50
2009,09,23,10,43,20.60
2009,09,23,10,44,20.60
2009,09,23,10,45,20.70
2009,09,23,10,46,20.70
2009,09,23,10,47,20.80
2009,09,23,10,48,20.80
2009,09,23,10,49,20.80
2009,09,23,10,50,20.80
2009,09,23,10,51,20.80
2009,09,23,10,52,20.80
2009,09,23,10,53,20.80
2009,09,23,10,54,20.80
2009,09,23,10,55,20.70
2009,09,23,10,56,20.70
2009,09,23,10,57,20.70
2009,09,23,10,58,20.70
2009,09,23,10,59,20.80
2009,09,23,11,00,20.80
2009,09,23,11,01,20.80
2009,09,23,11,02,20.70
2009,09,23,11,03,20.70
2009,09,23,11,04,20.60
2009,09,23,11,05,20.70
2009,09,23,11,06,20.70
2009,09,23,11,07,20.80
2009,09,23,11,08,20.80
2009,09,23,11,09,20.80
2009,09,23,11,10,20.80
2009,09,23,11,11,20.80
2009,09,23,11,12,20.80
2009,09,23,11,13,20.80
2009,09,23,11,14,20.90
2009,09,23,11,15,20.90
2009,09,23,11,16,20.90
2009,09,23,11,17,20.90
2009,09,23,11,18,20.90
2009,09,23,11,19,20.90
2009,09,23,11,20,21.00
2009,09,23,11,21,21.00
2009,09,23,11,22,21.10
2009,09,23,11,23,21.10
2009,09,23,11,24,21.20
2009,09,23,11,25,21.20
2009,09,23,11,26,21.20
2009,09,23,11,27,21.20
2009,09,23,11,28,21.20
2009,09,23,11,29,21.20
2009,09,23,11,30,21.20
2009,09,23,11,31,21.30
2009,09,23,11,32,21.30
2009,09,23,11,33,21.30
2009,09,23,11,34,21.30
2009,09,23,11,35,21.30
2009,09,23,11,36,21.30
2009,09,23,11,37,21.30
2009,09,23,11,38,21.30
2009,09,23,11,39,21.30
2009,09,23,11,40,21.30
2009,09,23,11,41,21.40
2009,09,23,11,42,21.40
2009,09,23,11,43,21.50
2009,09,23,11,44,21.60
2009,09,23,11,45,21.70
2009,09,23,11,46,21.80
2009,09,23,11,47,21.90
2009,09,23,11,48,22.00
2009,09,23,11,49,22.10
2009,09,23,11,50,22.20
2009,09,23,11,51,22.30
2009,09,23,11,52,22.50
2009,09,23,11,53,22.60
2009,09,23,11,54,22.60
2009,09,23,11,55,22.60
2009,09,23,11,56,22.60
2009,09,23,11,57,22.60
2009,09,23,11,58,22.60
2009,09,23,11,59,22.70
2009,09,23,12,00,22.70
2009,09,23,12,01,22.80
2009,09,23,12,02,22.90
2009,09,23,12,03,23.00
2009,09,23,12,04,23.10
2009,09,23,12,05,23.10
2009,09,23,12,06,23.20
2009,09,23,12,07,23.20
2009,09,23,12,08,23.10
2009,09,23,12,09,23.00
2009,09,23,12,10,22.90
2009,09,23,12,11,22.90
2009,09,23,12,12,22.80
2009,09,23,12,13,22.80
2009,09,23,12,14,22.80
2009,09,23,12,15,22.80
2009,09,23,12,16,22.80
2009,09,23,12,17,22.80
2009,09,23,12,18,22.80
2009,09,23,12,19,22.90
2009,09,23,12,20,22.90
2009,09,23,12,21,23.00
2009,09,23,12,22,23.10
2009,09,23,12,23,23.10
2009,09,23,12,24,23.10
2009,09,23,12,25,23.10
2009,09,23,12,26,23.20
2009,09,23,12,27,23.20
2009,09,23,12,28,23.30
2009,09,23,12,29,23.30
2009,09,23,12,30,23.40
2009,09,23,12,31,23.40
2009,09,23,12,32,23.40
2009,09,23,12,33,23.30
2009,09,23,12,34,23.30
2009,09,23,12,35,23.30
2009,09,23,12,36,23.30
2009,09,23,12,37,23.30
2009,09,23,12,38,23.40
2009,09,23,12,39,23.40
2009,09,23,12,40,23.50
2009,09,23,12,41,23.60
2009,09,23,12,42,23.50
2009,09,23,12,43,23.50
2009,09,23,12,44,23.60
2009,09,23,12,45,23.60
2009,09,23,12,46,23.70
2009,09,23,12,47,23.70
2009,09,23,12,48,23.80
2009,09,23,12,49,23.90
2009,09,23,12,50,23.90
2009,09,23,12,51,23.90
2009,09,23,12,52,24.00
2009,09,23,12,53,24.00
2009,09,23,12,54,24.00
2009,09,23,12,55,24.00
2009,09,23,12,56,24.00
2009,09,23,12,57,24.00
2009,09,23,12,58,24.00
2009,09,23,12,59,24.00
2009,09,23,13,00,24.00
2009,09,23,13,01,23.90
2009,09,23,13,02,23.80
2009,09,23,13,03,23.80
2009,09,23,13,04,23.60
2009,09,23,13,05,23.50
2009,09,23,13,06,23.40
2009,09,23,13,07,23.40
2009,09,23,13,08,23.30
2009,09,23,13,09,23.30
2009,09,23,13,10,23.30
2009,09,23,13,11,23.20
2009,09,23,13,12,23.20
2009,09,23,13,13,23.10
2009,09,23,13,14,23.10
2009,09,23,13,15,23.10
2009,09,23,13,16,23.00
2009,09,23,13,17,23.00
2009,09,23,13,18,22.90
2009,09,23,13,19,22.90
2009,09,23,13,20,22.80
2009,09,23,13,21,22.80
2009,09,23,13,22,22.80
2009,09,23,13,23,22.80
2009,09,23,13,24,22.90
2009,09,23,13,25,22.90
2009,09,23,13,26,22.90
2009,09,23,13,27,23.00
2009,09,23,13,28,23.00
2009,09,23,13,29,23.10
2009,09,23,13,30,23.00
2009,09,23,13,31,23.10
2009,09,23,13,32,23.10
2009,09,23,13,33,23.00
2009,09,23,13,34,22.90
2009,09,23,13,35,22.80
2009,09,23,13,36,22.60
2009,09,23,13,37,22.50
2009,09,23,13,38,22.40
2009,09,23,13,39,22.30
2009,09,23,13,40,22.10
2009,09,23,13,41,22.00
2009,09,23,13,42,21.90
2009,09,23,13,43,21.80
2009,09,23,13,44,21.60
2009,09,23,13,45,21.50
2009,09,23,13,46,21.40
2009,09,23,13,47,21.30
2009,09,23,13,48,21.20
2009,09,23,13,49,21.10
2009,09,23,13,50,21.10
2009,09,23,13,51,21.10
2009,09,23,13,52,21.10
2009,09,23,13,53,21.00
2009,09,23,13,54,21.00
2009,09,23,13,55,21.00
2009,09,23,13,56,21.00
2009,09,23,13,57,21.10
2009,09,23,13,58,21.20
2009,09,23,13,59,21.30
2009,09,23,14,00,21.40
2009,09,23,14,01,21.50
2009,09,23,14,02,21.50
2009,09,23,14,03,21.50
2009,09,23,14,04,21.40
2009,09,23,14,05,21.30
2009,09,23,14,06,21.20
2009,09,23,14,07,21.20
2009,09,23,14,08,21.20
2009,09,23,14,09,21.20
2009,09,23,14,10,21.10
2009,09,23,14,11,21.10
2009,09,23,14,12,21.10
2009,09,23,14,13,21.10
2009,09,23,14,14,21.10
2009,09,23,14,15,21.10
2009,09,23,14,16,21.00
2009,09,23,14,17,21.00
2009,09,23,14,18,21.00
2009,09,23,14,19,21.10
2009,09,23,14,20,21.10
2009,09,23,14,21,21.20
2009,09,23,14,22,21.20
2009,09,23,14,23,21.20
2009,09,23,14,24,21.20
2009,09,23,14,25,21.30
2009,09,23,14,26,21.30
2009,09,23,14,27,21.40
2009,09,23,14,28,21.40
2009,09,23,14,29,21.40
2009,09,23,14,30,21.40
2009,09,23,14,31,21.40
2009,09,23,14,32,21.50
2009,09,23,14,33,21.50
2009,09,23,14,34,21.50
2009,09,23,14,35,21.50
2009,09,23,14,36,21.40
2009,09,23,14,37,21.40
2009,09,23,14,38,21.40
2009,09,23,14,39,21.30
2009,09,23,14,40,21.20
2009,09,23,14,41,21.10
2009,09,23,14,42,21.10
2009,09,23,14,43,21.00
2009,09,23,14,44,21.00
2009,09,23,14,45,20.90
2009,09,23,14,46,20.90
2009,09,23,14,47,20.90
2009,09,23,14,48,21.00
2009,09,23,14,49,21.00
2009,09,23,14,50,21.00
2009,09,23,14,51,21.00
2009,09,23,14,52,21.00
2009,09,23,14,53,21.00
2009,09,23,14,54,21.10
2009,09,23,14,55,21.10
2009,09,23,14,56,21.10
2009,09,23,14,57,21.00
2009,09,23,14,58,21.00
2009,09,23,14,59,20.90
2009,09,23,15,00,20.90
2009,09,23,15,01,20.90
2009,09,23,15,02,20.90
2009,09,23,15,03,20.90
2009,09,23,15,04,20.90
2009,09,23,15,05,21.00
2009,09,23,15,06,21.10
2009,09,23,15,07,21.20
2009,09,23,15,08,21.20
2009,09,23,15,09,21.20
2009,09,23,15,10,21.30
2009,09,23,15,11,21.30
2009,09,23,15,12,21.40
2009,09,23,15,13,21.40
2009,09,23,15,14,21.40
2009,09,23,15,15,21.40
2009,09,23,15,16,21.50
2009,09,23,15,17,21.50
2009,09,23,15,18,21.60
2009,09,23,15,19,21.60
2009,09,23,15,20,21.60
2009,09,23,15,21,21.50
2009,09,23,15,22,21.30
2009,09,23,15,23,21.20
2009,09,23,15,24,21.00
2009,09,23,15,25,20.80
2009,09,23,15,26,20.70
2009,09,23,15,27,20.60
2009,09,23,15,28,20.50
2009,09,23,15,29,20.40
2009,09,23,15,30,20.40
2009,09,23,15,31,20.30
2009,09,23,15,32,20.20
2009,09,23,15,33,20.20
2009,09,23,15,34,20.20
2009,09,23,15,35,20.20
2009,09,23,15,36,20.20
2009,09,23,15,37,20.00
2009,09,23,15,38,20.00
2009,09,23,15,39,20.00
2009,09,23,15,40,20.00
2009,09,23,15,41,20.00
2009,09,23,15,42,20.00
2009,09,23,15,43,20.00
2009,09,23,15,44,20.10
2009,09,23,15,45,20.00
2009,09,23,15,46,20.00
2009,09,23,15,47,19.90
2009,09,23,15,48,19.90
2009,09,23,15,49,19.80
2009,09,23,15,50,19.80
2009,09,23,15,51,19.80
2009,09,23,15,52,19.80
2009,09,23,15,53,19.80
2009,09,23,15,54,19.80
2009,09,23,15,55,19.80
2009,09,23,15,56,19.90
2009,09,23,15,57,20.00
2009,09,23,15,58,20.00
2009,09,23,15,59,20.10
2009,09,23,16,00,20.10
2009,09,23,16,01,20.00
2009,09,23,16,02,20.00
2009,09,23,16,03,19.90
2009,09,23,16,04,19.90
2009,09,23,16,05,19.80
2009,09,23,16,06,19.80
2009,09,23,16,07,19.80
2009,09,23,16,08,19.80
2009,09,23,16,09,19.80
2009,09,23,16,10,19.90
2009,09,23,16,11,19.90
2009,09,23,16,12,20.00
2009,09,23,16,13,20.10
2009,09,23,16,14,20.10
2009,09,23,16,15,20.30
2009,09,23,16,16,20.40
2009,09,23,16,17,20.50
2009,09,23,16,18,20.60
2009,09,23,16,19,20.70
2009,09,23,16,20,20.90
2009,09,23,16,21,21.00
2009,09,23,16,22,21.10
2009,09,23,16,23,21.20
2009,09,23,16,24,21.30
2009,09,23,16,25,21.40
2009,09,23,16,26,21.60
2009,09,23,16,27,21.70
2009,09,23,16,28,21.90
2009,09,23,16,29,22.00
2009,09,23,16,30,22.00
2009,09,23,16,31,22.00
2009,09,23,16,32,21.80
2009,09,23,16,33,21.70
2009,09,23,16,34,21.60
2009,09,23,16,35,21.60
2009,09,23,16,36,21.50
2009,09,23,16,37,21.40
2009,09,23,16,38,21.40
2009,09,23,16,39,21.40
2009,09,23,16,40,21.40
2009,09,23,16,41,21.50
2009,09,23,16,42,21.60
2009,09,23,16,43,21.60
2009,09,23,16,44,21.50
2009,09,23,16,45,21.50
2009,09,23,16,46,21.40
2009,09,23,16,47,21.40
2009,09,23,16,48,21.50
2009,09,23,16,49,21.50
2009,09,23,16,50,21.60
2009,09,23,16,51,21.60
2009,09,23,16,52,21.70
2009,09,23,16,53,21.70
2009,09,23,16,54,21.70
2009,09,23,16,55,21.70
2009,09,23,16,56,21.80
2009,09,23,16,57,21.70
2009,09,23,16,58,21.70
2009,09,23,16,59,21.60
2009,09,23,17,00,21.60
2009,09,23,17,01,21.60
2009,09,23,17,02,21.50
2009,09,23,17,03,21.50
2009,09,23,17,04,21.40
2009,09,23,17,05,21.40
2009,09,23,17,06,21.40
2009,09,23,17,07,21.40
2009,09,23,17,08,21.40
2009,09,23,17,09,21.30
2009,09,23,17,10,21.30
2009,09,23,17,11,21.30
2009,09,23,17,12,21.30
2009,09,23,17,13,21.40
2009,09,23,17,14,21.40
2009,09,23,17,15,21.40
2009,09,23,17,16,21.50
2009,09,23,17,17,21.50
2009,09,23,17,18,21.60
2009,09,23,17,19,21.60
2009,09,23,17,20,21.70
2009,09,23,17,21,21.70
2009,09,23,17,22,21.70
2009,09,23,17,23,21.70
2009,09,23,17,24,21.70
2009,09,23,17,25,21.70
2009,09,23,17,26,21.80
2009,09,23,17,27,21.80
2009,09,23,17,28,21.90
2009,09,23,17,29,22.00
2009,09,23,17,30,22.10
2009,09,23,17,31,22.20
2009,09,23,17,32,22.30